Simultaneous Nadir Overpasses (SNOs) Predictions

Prediction of SNOs between METOP-A and TERRA Satellite Orbit:

Table of predicted SNOs for the next 14.0 days since TLE Epoch: 3/6/2020
Index Date (METOP-A) Time (METOP-A) Lat,Lon (METOP-A) SZA (METOP-A ) Date (TERRA) Time (TERRA) Lat,Lon (TERRA) SZA (TERRA ) Distance(km) Time Diff (sec)
1 03/09/2020 01:37:41 81.43,-154.62 88.50 03/09/2020 01:38:21 81.44,-154.48 88.54 2.41 40
2 03/09/2020 02:28:21 -81.42, 12.91 91.50 03/09/2020 02:27:48 -81.43, 13.06 91.50 2.69 33
3 03/11/2020 21:12:04 81.43, -88.25 87.42 03/11/2020 21:12:36 81.42, -88.35 87.41 1.73 32
4 03/11/2020 22:02:44 -81.42, 79.29 92.58 03/11/2020 22:02:03 -81.42, 79.24 92.61 1.11 41
5 03/14/2020 16:46:27 81.43, -21.90 86.33 03/14/2020 16:46:50 81.42, -21.85 86.34 0.94 23
6 03/14/2020 17:37:07 -81.42, 145.67 93.67 03/14/2020 17:36:17 -81.42, 145.76 93.68 1.60 50
7 03/17/2020 12:20:49 81.43, 44.43 85.24 03/17/2020 12:21:03 81.42, 44.60 85.26 2.88 14
8 03/17/2020 13:11:28 -81.42,-147.58 94.72 03/17/2020 13:10:30 -81.43,-147.74 94.76 2.95 58
9 03/20/2020 07:55:11 81.42, 111.15 84.18 03/20/2020 07:55:17 81.42, 111.03 84.17 2.00 6




NCC Satellite Simultaneous Nadir Overpasses (SNOs) Prediction Service
